This is the latest recevied weather packets stored in our database for station/object DC1MPP-9. If no packets are shown the sender has not sent any weather packets the latest 10 day(s).
| Time | Temp. | Humidity | Pressure | Rain* | Wind** | Luminosity | Snow |
|---|---|---|---|---|---|---|---|
| 1787402310 | 23.33° C | 54% | 962 hPa | - | - | - | - |
| 1787402069 | 22.78° C | 47% | 962 hPa | - | - | - | - |
| 1787401346 | 23.33° C | 62% | 962 hPa | - | - | - | - |
| 1787400864 | 22.22° C | 66% | 962 hPa | - | - | - | - |
| 1787400622 | 22.78° C | 65% | 962 hPa | - | - | - | - |
| 1787400381 | 22.22° C | 64% | 962 hPa | - | - | - | - |
| 1787400140 | 22.78° C | 61% | 962 hPa | - | - | - | - |
| 1787399899 | 22.78° C | 57% | 962 hPa | - | - | - | - |
| 1787399658 | 22.78° C | 63% | 962 hPa | - | - | - | - |
| 1787399417 | 22.78° C | 68% | 962 hPa | - | - | - | - |
| 1787399176 | 22.22° C | 70% | 962 hPa | - | - | - | - |
| 1787398935 | 22.78° C | 70% | 962 hPa | - | - | - | - |
| 1787398453 | 21.67° C | 65% | 962 hPa | - | - | - | - |
| 1787398212 | 22.78° C | 68% | 962 hPa | - | - | - | - |
| 1787397971 | 22.78° C | 57% | 962 hPa | - | - | - | - |
| 1787397730 | 22.78° C | 64% | 962 hPa | - | - | - | - |
| 1787397489 | 22.78° C | 67% | 962 hPa | - | - | - | - |
| 1787397248 | 23.33° C | 70% | 962 hPa | - | - | - | - |
| 1787397007 | 23.33° C | 70% | 962 hPa | - | - | - | - |
| 1787396766 | 23.33° C | 70% | 962 hPa | - | - | - | - |
| 1787396524 | 22.78° C | 77% | 962 hPa | - | - | - | - |
| 1787396283 | 22.78° C | 77% | 962 hPa | - | - | - | - |
| 1787396042 | 22.22° C | 76% | 962 hPa | - | - | - | - |
| 1787395801 | 22.22° C | 72% | 962 hPa | - | - | - | - |
| 1787395560 | 22.78° C | 76% | 961 hPa | - | - | - | - |
* Rain since midnight (hover to see other rain measurements)
** Current wind speed in m/s (hover to see current wind gust speed)